| time (UTC) | temp F | wind direction | speed MPH | gust MPH | rain 1hr in | rain 24hr in | rain mn in | humidity % | barometer mb |
| 20260504150716 | 65 | 264 | 2.0 | 8.0 | 0.00 | 0.00 | 0.00 | 40 | 1013.4 |
| 20260504150213 | 66 | 273 | 8.0 | 11.0 | 0.00 | 0.00 | 0.00 | 40 | 1013.3 |
| 20260504141142 | 63 | 194 | 9.0 | 13.0 | 0.00 | 0.00 | 0.00 | 47 | 1013.4 |
| 20260504140639 | 63 | 236 | 9.0 | 15.0 | 0.00 | 0.00 | 0.00 | 47 | 1013.7 |
| 20260504140134 | 63 | 288 | 5.0 | 11.0 | 0.00 | 0.00 | 0.00 | 48 | 1013.5 |
| 20260504130602 | 59 | 263 | 2.0 | 9.0 | 0.00 | 0.00 | 0.00 | 55 | 1013.9 |
| 20260504110450 | 50 | 239 | 1.0 | 3.0 | 0.00 | 0.00 | 0.00 | 73 | 1014.8 |
| 20260504100413 | 48 | 230 | 3.0 | 4.0 | 0.00 | 0.00 | 0.00 | 71 | 1014.8 |
| 20260504081806 | 48 | 244 | 0.0 | 3.0 | 0.00 | 0.00 | 0.00 | 63 | 1014.8 |
| 20260504081302 | 48 | 236 | 2.0 | 3.0 | 0.00 | 0.00 | 0.00 | 63 | 1014.6 |
| 20260504080759 | 48 | 226 | 1.0 | 2.0 | 0.00 | 0.00 | 0.00 | 63 | 1014.7 |
| 20260504080255 | 48 | 257 | 1.0 | 2.0 | 0.00 | 0.00 | 0.00 | 62 | 1014.5 |
| 20260504070223 | 47 | 251 | 0.0 | 2.0 | 0.00 | 0.00 | 0.00 | 61 | 1014.3 |
| 20260504060143 | 48 | 253 | 0.0 | 2.0 | 0.00 | 0.00 | 0.00 | 58 | 1014.3 |
| 20260504050611 | 49 | 230 | 2.0 | 2.0 | 0.00 | 0.00 | 0.00 | 55 | 1014.4 |
| 20260504050108 | 49 | 240 | 0.0 | 1.0 | 0.00 | 0.00 | 0.00 | 54 | 1014.2 |
| 20260504045605 | 49 | 242 | 1.0 | 1.0 | 0.00 | 0.00 | 0.00 | 54 | 1014.2 |
| 20260504045100 | 49 | 244 | 2.0 | 2.0 | 0.00 | 0.00 | 0.00 | 54 | 1014.0 |
| 20260504044558 | 49 | 244 | 0.0 | 1.0 | 0.00 | 0.00 | 0.00 | 54 | 1014.0 |
| 20260504044055 | 50 | 235 | 1.0 | 2.0 | 0.00 | 0.00 | 0.00 | 53 | 1014.1 |
| 20260504043552 | 50 | 252 | 0.0 | 2.0 | 0.00 | 0.00 | 0.00 | 52 | 1014.2 |
| 20260504043049 | 50 | 254 | 1.0 | 2.0 | 0.00 | 0.00 | 0.00 | 52 | 1014.0 |
| 20260504042546 | 50 | 253 | 1.0 | 1.0 | 0.00 | 0.00 | 0.00 | 52 | 1014.0 |
| 20260504042043 | 50 | 250 | 2.0 | 2.0 | 0.00 | 0.00 | 0.00 | 52 | 1013.9 |
| 20260504041539 | 50 | 252 | 1.0 | 2.0 | 0.00 | 0.00 | 0.00 | 51 | 1013.8 |
| 20260504041035 | 50 | 241 | 1.0 | 2.0 | 0.00 | 0.00 | 0.00 | 51 | 1013.9 |
| 20260504040533 | 50 | 236 | 1.0 | 2.0 | 0.00 | 0.00 | 0.00 | 51 | 1013.9 |
| 20260504040029 | 50 | 240 | 0.0 | 1.0 | 0.00 | 0.00 | 0.00 | 50 | 1013.7 |
| 20260504035526 | 50 | 241 | 1.0 | 2.0 | 0.00 | 0.00 | 0.00 | 50 | 1013.9 |
| 20260504035022 | 50 | 246 | 1.0 | 2.0 | 0.00 | 0.00 | 0.00 | 49 | 1013.7 |
| 20260504034520 | 50 | 250 | 0.0 | 1.0 | 0.00 | 0.00 | 0.00 | 49 | 1013.6 |
| 20260504034017 | 50 | 244 | 1.0 | 3.0 | 0.00 | 0.00 | 0.00 | 49 | 1013.8 |
| 20260504033515 | 50 | 221 | 1.0 | 2.0 | 0.00 | 0.00 | 0.00 | 49 | 1013.7 |
| 20260504033012 | 50 | 225 | 2.0 | 2.0 | 0.00 | 0.00 | 0.00 | 49 | 1013.7 |
| 20260504032509 | 51 | 231 | 1.0 | 3.0 | 0.00 | 0.00 | 0.00 | 49 | 1013.6 |
| 20260504032005 | 51 | 241 | 1.0 | 2.0 | 0.00 | 0.00 | 0.00 | 48 | 1013.4 |
| 20260504031502 | 51 | 245 | 0.0 | 1.0 | 0.00 | 0.00 | 0.00 | 47 | 1013.6 |
| 20260504030959 | 51 | 256 | 1.0 | 2.0 | 0.00 | 0.00 | 0.00 | 47 | 1013.4 |
| 20260504030456 | 51 | 254 | 2.0 | 2.0 | 0.00 | 0.00 | 0.00 | 47 | 1013.5 |
| 20260504025952 | 51 | 252 | 0.0 | 2.0 | 0.00 | 0.00 | 0.00 | 47 | 1013.5 |
| 20260504025449 | 51 | 233 | 1.0 | 2.0 | 0.00 | 0.00 | 0.00 | 46 | 1013.6 |
| 20260504024946 | 51 | 223 | 1.0 | 2.0 | 0.00 | 0.00 | 0.00 | 46 | 1013.6 |
| 20260504024443 | 51 | 245 | 0.0 | 1.0 | 0.00 | 0.00 | 0.00 | 46 | 1013.6 |
| 20260504023940 | 51 | 249 | 1.0 | 1.0 | 0.00 | 0.00 | 0.00 | 46 | 1013.7 |
| 20260504023437 | 52 | 240 | 1.0 | 2.0 | 0.00 | 0.00 | 0.00 | 45 | 1013.7 |
| 20260504022932 | 52 | 245 | 0.0 | 2.0 | 0.00 | 0.00 | 0.00 | 45 | 1013.7 |
| 20260504022429 | 52 | 245 | 1.0 | 2.0 | 0.00 | 0.00 | 0.00 | 43 | 1013.5 |
| 20260504021925 | 52 | 254 | 1.0 | 1.0 | 0.00 | 0.00 | 0.00 | 43 | 1013.5 |
| 20260504021423 | 52 | 238 | 2.0 | 2.0 | 0.00 | 0.00 | 0.00 | 43 | 1013.5 |
| 20260504020920 | 52 | 252 | 1.0 | 2.0 | 0.00 | 0.00 | 0.00 | 44 | 1013.6 |
| 20260504020416 | 52 | 238 | 1.0 | 1.0 | 0.00 | 0.00 | 0.00 | 43 | 1013.5 |
| 20260504015913 | 53 | 241 | 1.0 | 1.0 | 0.00 | 0.00 | 0.00 | 43 | 1013.5 |
| 20260504015409 | 53 | 241 | 1.0 | 2.0 | 0.00 | 0.00 | 0.00 | 43 | 1013.5 |
| 20260504014905 | 53 | 236 | 1.0 | 2.0 | 0.00 | 0.00 | 0.00 | 43 | 1013.6 |
| 20260504014401 | 53 | 237 | 1.0 | 2.0 | 0.00 | 0.00 | 0.00 | 42 | 1013.5 |
| 20260504013859 | 54 | 243 | 0.0 | 1.0 | 0.00 | 0.00 | 0.00 | 42 | 1013.3 |
| 20260504013357 | 54 | 247 | 0.0 | 1.0 | 0.00 | 0.00 | 0.00 | 41 | 1013.3 |
| 20260504012853 | 54 | 242 | 0.0 | 2.0 | 0.00 | 0.00 | 0.00 | 40 | 1013.2 |
| 20260504012351 | 54 | 240 | 1.0 | 2.0 | 0.00 | 0.00 | 0.00 | 40 | 1013.2 |
| 20260504011848 | 55 | 245 | 1.0 | 2.0 | 0.00 | 0.00 | 0.00 | 40 | 1013.2 |
| 20260504011344 | 55 | 246 | 1.0 | 2.0 | 0.00 | 0.00 | 0.00 | 39 | 1013.2 |
| 20260504010841 | 55 | 244 | 0.0 | 2.0 | 0.00 | 0.00 | 0.00 | 38 | 1013.0 |
| 20260504010336 | 55 | 260 | 2.0 | 2.0 | 0.00 | 0.00 | 0.00 | 38 | 1012.8 |
| 20260504005833 | 55 | 251 | 1.0 | 1.0 | 0.00 | 0.00 | 0.00 | 38 | 1013.0 |
| 20260504005330 | 56 | 242 | 1.0 | 2.0 | 0.00 | 0.00 | 0.00 | 38 | 1012.9 |
| 20260504004827 | 56 | 247 | 1.0 | 3.0 | 0.00 | 0.00 | 0.00 | 37 | 1012.8 |
| 20260504004325 | 57 | 256 | 2.0 | 2.0 | 0.00 | 0.00 | 0.00 | 35 | 1012.8 |
| 20260504003821 | 57 | 262 | 3.0 | 3.0 | 0.00 | 0.00 | 0.00 | 35 | 1012.5 |
| 20260504003318 | 57 | 248 | 1.0 | 3.0 | 0.00 | 0.00 | 0.00 | 35 | 1012.5 |
| 20260504002815 | 57 | 250 | 1.0 | 3.0 | 0.00 | 0.00 | 0.00 | 35 | 1012.4 |
| 20260504002312 | 57 | 251 | 2.0 | 2.0 | 0.00 | 0.00 | 0.00 | 35 | 1012.4 |
| 20260504001809 | 58 | 260 | 1.0 | 2.0 | 0.00 | 0.00 | 0.00 | 35 | 1012.3 |
| 20260504001306 | 58 | 259 | 1.0 | 3.0 | 0.00 | 0.00 | 0.00 | 33 | 1012.2 |
| 20260504000803 | 58 | 258 | 2.0 | 3.0 | 0.00 | 0.00 | 0.00 | 33 | 1012.2 |
| 20260504000300 | 58 | 222 | 2.0 | 4.0 | 0.00 | 0.00 | 0.00 | 34 | 1012.3 |
| 20260503235758 | 58 | 260 | 2.0 | 4.0 | 0.00 | 0.00 | 0.00 | 33 | 1012.6 |
| 20260503235255 | 58 | 259 | 2.0 | 3.0 | 0.00 | 0.00 | 0.00 | 33 | 1012.4 |
| 20260503234753 | 59 | 259 | 2.0 | 3.0 | 0.00 | 0.00 | 0.00 | 33 | 1012.1 |
| 20260503234251 | 59 | 264 | 2.0 | 2.0 | 0.00 | 0.00 | 0.00 | 32 | 1012.1 |
| 20260503233748 | 59 | 265 | 2.0 | 3.0 | 0.00 | 0.00 | 0.00 | 31 | 1012.2 |
| 20260503233243 | 59 | 258 | 2.0 | 3.0 | 0.00 | 0.00 | 0.00 | 31 | 1012.1 |
| 20260503232741 | 60 | 260 | 3.0 | 3.0 | 0.00 | 0.00 | 0.00 | 30 | 1012.1 |
| 20260503232238 | 60 | 270 | 5.0 | 6.0 | 0.00 | 0.00 | 0.00 | 30 | 1012.1 |
| 20260503231736 | 60 | 267 | 3.0 | 3.0 | 0.00 | 0.00 | 0.00 | 31 | 1012.0 |
| 20260503231232 | 60 | 248 | 3.0 | 4.0 | 0.00 | 0.00 | 0.00 | 30 | 1011.8 |
| 20260503230728 | 60 | 263 | 2.0 | 4.0 | 0.00 | 0.00 | 0.00 | 30 | 1011.7 |
| 20260503230226 | 60 | 261 | 3.0 | 6.0 | 0.00 | 0.00 | 0.00 | 29 | 1011.7 |
| 20260503225723 | 60 | 269 | 4.0 | 8.0 | 0.00 | 0.00 | 0.00 | 29 | 1011.6 |
| 20260503225223 | 60 | 256 | 2.0 | 8.0 | 0.00 | 0.00 | 0.00 | 29 | 1011.7 |
| 20260503224720 | 60 | 278 | 6.0 | 8.0 | 0.00 | 0.00 | 0.00 | 28 | 1011.8 |
| 20260503224218 | 60 | 274 | 4.0 | 7.0 | 0.00 | 0.00 | 0.00 | 28 | 1011.7 |
| 20260503223716 | 60 | 289 | 4.0 | 6.0 | 0.00 | 0.00 | 0.00 | 28 | 1011.9 |
| 20260503223213 | 60 | 276 | 4.0 | 6.0 | 0.00 | 0.00 | 0.00 | 28 | 1011.9 |
| 20260503222709 | 61 | 281 | 4.0 | 11.0 | 0.00 | 0.00 | 0.00 | 29 | 1011.7 |
| 20260503222207 | 61 | 271 | 3.0 | 8.0 | 0.00 | 0.00 | 0.00 | 29 | 1011.7 |
| 20260503221706 | 61 | 279 | 5.0 | 9.0 | 0.00 | 0.00 | 0.00 | 29 | 1011.5 |
| 20260503221203 | 60 | 276 | 4.0 | 8.0 | 0.00 | 0.00 | 0.00 | 29 | 1011.7 |
| 20260503220659 | 61 | 262 | 5.0 | 9.0 | 0.00 | 0.00 | 0.00 | 29 | 1011.8 |
| 20260503220156 | 61 | 263 | 2.0 | 4.0 | 0.00 | 0.00 | 0.00 | 30 | 1011.7 |
| 20260503215653 | 60 | 261 | 2.0 | 9.0 | 0.00 | 0.00 | 0.00 | 29 | 1011.9 |
| 20260503215149 | 60 | 271 | 4.0 | 8.0 | 0.00 | 0.00 | 0.00 | 28 | 1012.0 |
| 20260503214648 | 61 | 284 | 6.0 | 10.0 | 0.00 | 0.00 | 0.00 | 28 | 1011.8 |
| 20260503214144 | 61 | 304 | 2.0 | 4.0 | 0.00 | 0.00 | 0.00 | 29 | 1011.8 |
| 20260503213643 | 61 | 285 | 4.0 | 6.0 | 0.00 | 0.00 | 0.00 | 29 | 1011.8 |
| 20260503213139 | 61 | 263 | 3.0 | 6.0 | 0.00 | 0.00 | 0.00 | 30 | 1011.8 |
| 20260503212637 | 61 | 268 | 3.0 | 4.0 | 0.00 | 0.00 | 0.00 | 30 | 1011.6 |
| 20260503212134 | 60 | 269 | 4.0 | 10.0 | 0.00 | 0.00 | 0.00 | 30 | 1011.7 |
| 20260503211632 | 60 | 262 | 3.0 | 7.0 | 0.00 | 0.00 | 0.00 | 30 | 1011.8 |
| 20260503211127 | 60 | 290 | 6.0 | 7.0 | 0.00 | 0.00 | 0.00 | 29 | 1011.8 |
| 20260503210624 | 60 | 281 | 4.0 | 9.0 | 0.00 | 0.00 | 0.00 | 29 | 1011.8 |
| 20260503210120 | 61 | 269 | 5.0 | 7.0 | 0.00 | 0.00 | 0.00 | 28 | 1011.8 |
| 20260503205616 | 61 | 270 | 4.0 | 6.0 | 0.00 | 0.00 | 0.00 | 30 | 1011.9 |
| 20260503205113 | 60 | 274 | 7.0 | 10.0 | 0.00 | 0.00 | 0.00 | 29 | 1011.7 |
| 20260503204610 | 60 | 348 | 4.0 | 7.0 | 0.00 | 0.00 | 0.00 | 29 | 1011.7 |
| 20260503204107 | 60 | 298 | 4.0 | 6.0 | 0.00 | 0.00 | 0.00 | 29 | 1011.7 |
| 20260503203604 | 59 | 305 | 6.0 | 9.0 | 0.00 | 0.00 | 0.00 | 29 | 1012.0 |
| 20260503203101 | 60 | 258 | 7.0 | 11.0 | 0.00 | 0.00 | 0.00 | 28 | 1011.9 |
| 20260503202559 | 60 | 289 | 4.0 | 10.0 | 0.00 | 0.00 | 0.00 | 29 | 1011.8 |
| 20260503202056 | 61 | 324 | 6.0 | 16.0 | 0.00 | 0.00 | 0.00 | 28 | 1011.9 |
| 20260503201554 | 60 | 294 | 5.0 | 6.0 | 0.00 | 0.00 | 0.00 | 30 | 1011.8 |
| 20260503201051 | 60 | 290 | 5.0 | 8.0 | 0.00 | 0.00 | 0.00 | 28 | 1012.0 |
| 20260503200547 | 60 | 306 | 4.0 | 7.0 | 0.00 | 0.00 | 0.00 | 28 | 1011.8 |
| 20260503200044 | 60 | 268 | 2.0 | 4.0 | 0.00 | 0.00 | 0.00 | 30 | 1011.9 |
| 20260503195541 | 60 | 263 | 4.0 | 9.0 | 0.00 | 0.00 | 0.00 | 28 | 1011.9 |
| 20260503195038 | 59 | 289 | 5.0 | 9.0 | 0.00 | 0.00 | 0.00 | 29 | 1011.9 |
| 20260503194535 | 59 | 277 | 7.0 | 9.0 | 0.00 | 0.00 | 0.00 | 28 | 1011.9 |
| 20260503194035 | 61 | 270 | 6.0 | 10.0 | 0.00 | 0.00 | 0.00 | 29 | 1011.9 |
| 20260503193532 | 60 | 264 | 4.0 | 6.0 | 0.00 | 0.00 | 0.00 | 29 | 1012.0 |
| 20260503193027 | 60 | 274 | 5.0 | 13.0 | 0.00 | 0.00 | 0.00 | 30 | 1012.1 |
| 20260503192524 | 59 | 284 | 4.0 | 10.0 | 0.00 | 0.00 | 0.00 | 30 | 1012.1 |
| 20260503192020 | 59 | 288 | 6.0 | 16.0 | 0.00 | 0.00 | 0.00 | 29 | 1012.3 |
| 20260503191517 | 59 | 279 | 7.0 | 10.0 | 0.00 | 0.00 | 0.00 | 29 | 1012.1 |
| 20260503191013 | 60 | 254 | 5.0 | 7.0 | 0.00 | 0.00 | 0.00 | 29 | 1012.1 |
| 20260503190510 | 59 | 273 | 4.0 | 14.0 | 0.00 | 0.00 | 0.00 | 31 | 1012.2 |
| 20260503190008 | 58 | 288 | 5.0 | 9.0 | 0.00 | 0.00 | 0.00 | 30 | 1012.3 |
| 20260503185503 | 59 | 270 | 3.0 | 11.0 | 0.00 | 0.00 | 0.00 | 30 | 1012.5 |
| 20260503185003 | 59 | 268 | 3.0 | 10.0 | 0.00 | 0.00 | 0.00 | 29 | 1012.5 |
| 20260503184500 | 59 | 319 | 8.0 | 9.0 | 0.00 | 0.00 | 0.00 | 29 | 1012.6 |
| 20260503183956 | 58 | 330 | 5.0 | 8.0 | 0.00 | 0.00 | 0.00 | 30 | 1012.6 |
| 20260503183453 | 58 | 339 | 10.0 | 11.0 | 0.00 | 0.00 | 0.00 | 29 | 1012.6 |
| 20260503182950 | 59 | 342 | 4.0 | 10.0 | 0.00 | 0.00 | 0.00 | 29 | 1012.7 |
| 20260503182449 | 58 | 308 | 4.0 | 8.0 | 0.00 | 0.00 | 0.00 | 31 | 1012.7 |
| 20260503181946 | 59 | 285 | 5.0 | 7.0 | 0.00 | 0.00 | 0.00 | 30 | 1012.8 |
| 20260503181443 | 57 | 288 | 5.0 | 7.0 | 0.00 | 0.00 | 0.00 | 30 | 1012.8 |
| 20260503180939 | 57 | 326 | 5.0 | 7.0 | 0.00 | 0.00 | 0.00 | 31 | 1012.8 |
| 20260503180438 | 57 | 325 | 6.0 | 14.0 | 0.00 | 0.00 | 0.00 | 30 | 1012.8 |
| 20260503175934 | 57 | 296 | 9.0 | 11.0 | 0.00 | 0.00 | 0.00 | 29 | 1012.8 |
| 20260503175432 | 56 | 259 | 6.0 | 9.0 | 0.00 | 0.00 | 0.00 | 32 | 1012.7 |
| 20260503174928 | 57 | 316 | 8.0 | 11.0 | 0.00 | 0.00 | 0.00 | 31 | 1013.1 |
| 20260503174426 | 56 | 317 | 4.0 | 6.0 | 0.00 | 0.00 | 0.00 | 34 | 1012.9 |
| 20260503173926 | 57 | 275 | 5.0 | 8.0 | 0.00 | 0.00 | 0.00 | 36 | 1012.9 |
| 20260503173422 | 56 | 288 | 5.0 | 7.0 | 0.00 | 0.00 | 0.00 | 33 | 1012.9 |
| 20260503172919 | 56 | 320 | 5.0 | 13.0 | 0.00 | 0.00 | 0.00 | 33 | 1013.0 |
| 20260503172417 | 56 | 280 | 6.0 | 11.0 | 0.00 | 0.00 | 0.00 | 32 | 1013.1 |
| 20260503171913 | 55 | 304 | 6.0 | 8.0 | 0.00 | 0.00 | 0.00 | 35 | 1012.8 |
| 20260503171410 | 57 | 259 | 3.0 | 9.0 | 0.00 | 0.00 | 0.00 | 33 | 1013.3 |
| 20260503170907 | 55 | 290 | 2.0 | 7.0 | 0.00 | 0.00 | 0.00 | 34 | 1013.1 |
| 20260503170403 | 55 | 337 | 6.0 | 13.0 | 0.00 | 0.00 | 0.00 | 35 | 1013.1 |